Location: Caltech
(34.1382°N, 118.1253°W)
Time: 09:06:42
(UTC-08:00)

Cosmos 1626 - Visible Passes

Search period start: 17 January 2017 00:00
Search period end: 27 January 2017 00:00
Orbit: 498 x 501 km, 82.5° (Epoch: 17 January)

Date Brightness Start Highest point End Pass type
(mag) Time Alt. Az. Time Alt. Az. Time Alt. Az.
17 Jan 2.6 18:43:04 10° S 18:45:57 44° SE 18:45:57 44° SE visible
18 Jan 2.1 06:14:58 10° N 06:18:43 84° W 06:22:26 10° S visible
18 Jan 2.6 18:23:18 10° SSE 18:26:44 36° E 18:27:22 33° ENE visible
18 Jan 5.5 20:01:36 10° W 20:02:08 10° WNW 20:02:08 10° WNW visible
19 Jan 2.6 05:55:00 10° N 05:58:42 64° E 06:02:24 10° SSE visible
19 Jan 3.2 18:03:42 10° SE 18:06:47 25° E 18:08:48 16° NE visible
19 Jan 5.1 19:39:56 10° WSW 19:42:08 15° WNW 19:43:34 13° NW visible
20 Jan 3.4 05:35:06 10° N 05:38:40 42° E 05:42:12 10° SSE visible
20 Jan 3.7 17:44:21 10° SE 17:46:51 17° E 17:49:22 10° NE visible
20 Jan 4.6 19:19:08 10° SW 19:22:01 21° WNW 19:24:56 10° NNW visible
21 Jan 4.2 05:15:20 10° NNE 05:18:36 28° E 05:21:52 10° SE visible
21 Jan 4.0 18:58:37 10° SW 19:01:57 30° W 19:05:17 10° NNW visible
22 Jan 4.8 04:55:42 10° NNE 04:58:31 20° ENE 05:01:19 10° SE visible
22 Jan 3.3 18:38:18 10° SSW 18:41:53 44° W 18:45:29 10° N visible
23 Jan 5.2 04:36:21 10° NE 04:38:24 14° ENE 04:40:27 10° ESE visible
23 Jan 3.1 06:10:38 10° NNW 06:13:46 26° W 06:16:54 10° SSW visible
23 Jan 2.4 18:18:08 10° SSW 18:21:51 68° W 18:25:34 10° N visible
24 Jan 2.6 05:50:20 10° NNW 05:53:49 38° W 05:57:16 10° SSW visible
24 Jan 2.0 17:58:06 10° S 18:01:49 79° E 18:05:34 10° N visible
25 Jan 2.1 05:31:29 21° NNW 05:33:49 58° W 05:37:29 10° S visible
25 Jan 2.3 17:38:12 10° S 17:41:49 51° E 17:45:27 10° NNE visible
26 Jan 2.0 05:12:48 47° N 05:13:49 89° W 05:17:33 10° S visible
26 Jan 5.5 18:56:18 10° W 18:57:20 11° WNW 18:58:22 10° WNW visible
